Погода в Самаре

Поиск расширенной информации на нашем сайте:

Полезная информация:

Новости сайта



02.01.2020
Опубликован Долгосрочный прогноз погоды по городам России и ближнего зарубежья на январь 2020 года.
Карты: Прогноз на январь и февраль 2020 года, Сравнение прогнозируемой аномалии приземной температуры воздуха на январь 2020 года по разным моделям.




Погода в Самаре - сегодня

Время (UTC), дата Ветер
(°,м/с) 
Видим.   Явления Облачность Т
(°С)
Тd
(°С)
f(%) Тe
(°С)
Pmin
(гПа)
dP
(гПа)
Po
(мм)
O2
(г/м3)
Тmin Tmax R s Состояние
почвы
03 24.09.21 110 (В) 10 км    10/5 600 м средняя 
[Sc|Ac trans]
+11.3 +4.4 62 +11  1015.2  749  289  +9.4      влажная 
06 24.09.21 110 (В) 4-11{11}  10 км  слаб. дождь  10/8 600 м средняя 
[Sc diur, vesp|Ac trans]
+11.2 +3.7 60 +10  1016.3  1.1  750  290           
09 24.09.21 100 (В) 3{11}  10 км  слаб. дождь  10/10 300 м 
[Frnb|Ns]
+8.9 +6.9 87 +8  1016.5  750  291           
15 24.09.21 100 (В) 10 км  слаб. дождь  10/10 300 м 
[Frnb|Ns]
+8.8 +7.4 91 +8  1013.3  -2.1  747  290    +11.4  10     
18 24.09.21 080 (В) 10 км  слаб. дождь  10/10 300 м 
[Sc]
+8.8 +6.5 85 +9  1012.2  -1.1  746  290           
21 24.09.21 100 (В) 4-10{10}  10 км  {дождь}  10/10 600 м 
[Sc]
+10.1 +4.8 70 +9  1009.6  -2.4  745  289           
00 25.09.21 100 (В) 4{10}  10 км  {дождь}  10/10 600 м 
[Sc]
+9.9 +5.3 73 +9  1007.5  -2.1  743  288           
03 25.09.21 100 (В) 10 км    10/10 600 м 
[Sc]
+9.1 +4 70 +9  1007.8  0.3  743  289  +8.5      влажная 
06 25.09.21 100 (В) 10 км    10/8 600 м средняя 
[Sc diur, vesp|Ac trans]
+10.8 +5.9 72 +11  1007.7  -0.2  743  287           
09 25.09.21 290 (З) 10 км    10/0 средняя, верхняя 
[Ac trans|Ci fib]
+13.5 +6.6 63 +14  1007.9  0.3  743  284           
15 25.09.21 260 (З) 10 км    10/6 600 м средняя 
[Sc diur, vesp|Ac trans]
+11 +6.6 74 +11  1009.9  1.3  745  287    +14.7       
18 25.09.21 270 (З) 10 км    10/0 средняя, верхняя 
[Ac trans|Ci fib]
+9.2 +7.2 87 +10  1010  745  289           
21 25.09.21 260 (З) 10 км    4/0 верхняя 
[Ci fib]
+7.8 +6.8 93 +9  1010.3  0.2  745  291           
03 26.09.21 тихо ()   4000 м    8/5 600 м средняя 
[Sc diur, vesp|Ac trans]
+5.2 +4.7 97 +5  1009.6  -0.6  744  294  +4.8        влажная 
06 26.09.21 280 (З) 10 км  {туман}  10/0 средняя 
[Ac trans]
+11.6 +8.9 83 +13  1008.5  -0.6  744  286           
09 26.09.21 140 (ЮВ) 10 км    10/5 600 м средняя 
[Sc|Ac trans]
+14.7 +8.4 66 +16  1007.2  -1  743  283           
15 26.09.21 090 (В) 10 км    10/4 600 м средняя 
[Sc|Ac trans]
+13.9 +8 68 +15  1005.3  -1.1  742  283    +16.1       
18 26.09.21 тихо ()   10 км    10/10 600 м 
[Sc]
+12.2 +9.3 82 +13  1004.6  -0.7  741  284           
21 26.09.21 100 (В) 10 км  слаб. дождь  10/10 600 м 
[Sc]
+11.3 +8.4 82 +12  1004  -0.7  741  285           
03 27.09.21 360 (С) 10 км    10/10 600 м 
[Sc]
+9.9 +5.4 74 +11  1003.9  0.6  740  287  +9.9      влажная 
06 27.09.21 050 (СВ) 10 км    10/8 600 м средняя 
[Sc diur, vesp|Ac trans]
+10.5 +5.6 72 +11  1004.9  741  287  +9.2         
09 27.09.21 040 (СВ) 10 км    10/8 600 м средняя 
[Sc diur, vesp|Ac trans]
+12.7 +7 68 +13  1006.5  1.7  742  285           
12 27.09.21 090 (В) 10 км    10/8 600 м средняя 
[Sc|Ac trans]
+11.5 +4.1 60 +11  1008.9  2.1  744  287           
15 27.09.21 030 (СВ) 10 км  слаб. дождь  10/10 600 м 
[Sc]
+9.4 +5.5 77 +9  1011.6  2.5  746  290    +13.1  0.0     
18 27.09.21 050 (СВ) 10 км  {дождь}  10/5 600 м средняя 
[Sc|Ac trans]
+8.5 +2.2 65 +9  1013.4  1.7  747  292           
Время (UTC), дата Ветер
(°,м/с) 
Видим.   Явления Облачность Т
(°С)
Тd
(°С)
f(%) Тe
(°С)
Pmin
(гПа)
dP
(гПа)
Po
(мм)
O2
(г/м3)
Тmin Tmax R s Состояние
почвы

Для получения пояснительной информации подведите курсор к названию столбца.

ПОГОДА в Самаре - архив

Всё, что Вы хотите узнать о погоде в Самаре - удобно и подробно!

Выберите нужную дату (начиная с 1 января 2019* года) и нажмите кнопку "Найти".
Будут отображены архивные сводки погоды по пункту Самара, начиная с указанной даты.


Отображать данные в формате CSV (для использования в таблицах Excel)


Внимание! Наш архив погоды предназначен исключительно для личного некоммерческого использования в познавательных целях. Если Вам необходимы официальные справки о состоянии погоды (для производственных, юридических, коммерческих и т.п. целей), обращайтесь в органы Росгидромета.

*Примечание: данная дата относится к архиву по метеостанциям СССР (Россия, СНГ, Балтия).
Архив по метеостанциям Зарубежной Европы и Азии (кроме Китая) хранится 10 дней, по другим регионам земного шара (Китай, Африка, Америка, Австралия, Океания) - 1 день.

Самара - район местоположения метеостанции


Название, широта, долгота, высота метеостанции:
Самара (обсерватория) 53.3°ш. 50.1°д. 130 м над ур. моря [Российская Федерация]

Дополнительная информация

В oтличие oт бoльшинства пoгoдных сайтoв мы публикуем пoдрoбную метеoинфoрмацию в детальнoм прoфессиoнальнoм фoрмате.

Характеристики температуры и влажнoсти вoздуха измеряются на высoте 2 м в тени вдали oт зданий и деревьев.
Скoрoсть ветра измеряется на высoте 10 м (на урoвне рoста челoвека скoрoсть ветра ниже в 1.5-2 раза). Если метеoстанция нахoдится в гoрoде или в лесу, тo скoрoсть ветра занижена на 2-4 м/с пo сравнению с oткрытым местoм. Скoрoсть ветра над акватoриями крупных рек и oзёр, а также на вершинах хoлмoв на 2-5 м/с выше, чем в oбычных услoвиях.
Атмoсфернoе давление в разных тoчках местнoсти мoжет значительнo oтличаться oт давления на метеoстанции, в зависимoсти oт услoвий рельефа (при пoдъёме на 10 м давление пoнижается примернo на 1 мм рт.ст.).